Theta_e
346 353 362 359 357 358 358 357 357 357 356 356 356 356 356 356 356 356 356 356 355 355 354 353 352 352 351 351 351 352 352 353 352 348 348 351 348 346 345 344 344 342 344
351 356 362 359 357 357 357 357 356 356 356 355 355 355 355 355 355 355 354 354 353 353 352 352 352 351 351 352 352 352 352 353 352 351 348 346 349 346 345 344 344 343 345
351 355 359 360 357 357 357 356 356 355 356 355 355 355 355 355 355 354 354 354 354 353 353 352 352 352 352 352 352 352 352 352 353 353 351 349 346 347 346 345 345 345 344
352 353 356 360 359 358 357 356 355 355 355 354 354 354 354 354 354 354 354 354 354 354 354 354 354 355 354 354 353 353 353 353 352 352 347 346 347 348 349 348 347 346 345
350 351 354 359 359 357 357 356 356 355 354 353 353 353 353 353 353 353 353 354 354 353 354 354 354 355 355 355 355 355 355 354 352 350 347 344 344 347 351 350 349 348 347
347 349 355 359 358 357 356 355 355 354 353 353 352 352 353 354 355 356 355 355 354 354 354 354 354 354 354 353 354 353 353 353 352 348 346 346 346 346 353 352 350 349 348
345 347 353 359 357 356 355 355 354 355 355 354 353 354 354 356 356 356 355 355 355 355 355 355 356 357 356 355 353 354 353 352 349 346 347 349 347 348 354 355 352 352 349
345 347 350 356 358 358 358 357 356 356 355 355 355 354 354 355 356 357 357 356 355 354 356 355 357 357 357 356 356 356 354 352 349 347 348 348 345 348 351 356 354 355 351
346 347 347 350 354 357 358 357 356 355 354 353 353 353 355 355 356 355 355 356 355 357 357 356 353 353 352 354 355 355 355 353 349 346 347 341 342 350 352 354 357 356 355
343 345 343 345 347 347 347 355 355 354 354 353 353 355 355 350 347 352 348 353 352 351 351 350 346 346 346 350 353 352 350 344 341 339 339 340 345 347 354 357 358 356 355
338 340 340 340 340 342 342 344 352 354 355 355 352 351 343 333 333 336 345 344 345 350 348 345 343 343 341 344 346 345 342 339 338 340 340 340 343 346 350 356 358 355 354
333 335 337 338 339 341 345 344 345 347 348 347 345 341 329 329 330 332 335 337 342 343 338 335 336 336 334 336 337 337 337 336 336 336 337 341 343 344 345 348 352 353 352
336 338 338 337 338 340 342 341 343 343 343 343 337 332 326 327 326 324 322 321 324 326 322 323 326 326 326 328 332 334 333 333 334 335 335 340 342 344 345 346 347 351 350
338 339 339 340 337 335 331 334 338 338 337 333 327 326 325 323 325 323 321 320 321 321 319 319 322 323 324 326 325 324 325 328 331 331 334 339 339 343 344 344 345 348 350
331 333 335 334 329 324 323 322 323 324 326 327 324 325 325 324 323 323 322 319 319 321 319 317 319 319 319 319 318 319 320 322 326 327 333 336 334 335 340 343 344 346 348
329 329 328 325 326 324 323 322 322 323 322 322 323 324 325 323 322 322 321 320 321 321 319 318 317 319 318 317 318 318 318 318 320 324 326 326 327 330 335 338 341 344 345
328 328 326 325 325 323 322 321 321 324 322 322 323 325 324 323 322 322 321 321 322 322 320 321 320 320 319 317 319 318 318 318 319 320 320 320 321 326 330 335 337 342 342
326 326 329 334 325 322 320 322 323 321 320 321 321 322 322 322 320 318 316 316 318 320 319 320 319 318 318 317 316 319 318 318 318 318 319 319 321 321 326 332 339 340 340
325 325 327 328 324 322 327 323 320 319 320 319 319 318 320 319 317 315 314 314 315 315 316 317 318 317 317 317 317 318 318 316 316 316 317 318 319 322 326 334 336 336 337
326 325 326 326 324 325 325 320 320 319 320 321 318 317 317 317 317 315 314 314 314 314 314 314 313 314 315 316 315 315 314 314 315 315 315 316 317 319 327 333 333 334 336
325 323 324 323 323 326 325 324 321 322 321 316 316 318 317 317 316 315 313 313 313 311 312 313 312 312 312 313 311 309 311 312 313 313 315 314 319 324 328 331 331 332 332
322 323 323 324 325 325 324 324 319 317 315 314 315 314 316 316 316 316 313 312 312 310 311 311 312 311 311 312 309 309 303 306 310 313 313 314 316 320 324 325 327 327 328
322 323 325 325 324 324 322 319 315 313 312 312 312 313 314 315 315 314 313 312 311 310 308 309 309 310 308 311 312 309 302 300 305 309 312 313 314 320 321 321 323 326 327
321 326 326 324 322 322 320 316 313 310 309 310 310 312 312 313 313 313 312 311 310 309 309 310 312 311 311 308 309 311 310 309 303 301 308 311 313 314 318 319 319 323 325
322 325 325 323 322 320 317 315 312 311 310 311 310 309 310 310 311 311 311 311 309 309 311 312 310 309 309 308 307 307 308 308 307 305 301 306 312 315 317 317 319 324 325
322 324 323 322 319 317 316 315 313 311 310 308 307 306 307 307 308 309 310 309 310 310 310 311 312 309 308 308 308 308 307 306 305 304 304 305 306 310 316 318 320 322 322
Wind_Speed
4 6 9 9 9 10 10 10 10 10 10 10 11 10 10 10 10 10 9 9 9 9 9 9 9 9 9 9 9 9 8 8 7 7 6 7 6 5 4 5 6 5 8
6 6 10 9 9 10 9 9 8 8 8 8 8 8 8 8 8 7 6 6 7 7 6 6 7 6 6 6 6 6 6 6 5 4 2 3 5 4 3 3 4 4 7
6 6 7 9 9 9 8 7 7 6 6 6 6 6 6 6 6 5 5 5 4 4 4 4 4 4 5 5 4 4 4 4 5 5 4 1 2 3 3 3 3 4 5
6 5 6 10 9 9 7 6 6 5 5 5 4 5 5 4 5 5 5 5 5 5 5 5 5 6 5 5 4 4 4 5 5 4 3 3 4 7 7 7 6 6 6
6 5 5 9 8 9 8 7 6 5 4 3 3 3 4 4 5 5 6 6 7 7 8 7 7 7 8 8 8 6 5 5 5 4 4 3 3 7 11 10 9 9 8
6 6 7 9 9 9 7 6 5 3 2 1 1 2 3 5 5 5 7 8 8 8 9 9 9 8 9 9 9 9 9 8 6 3 3 5 5 6 15 14 12 11 10
5 5 4 7 7 7 7 6 5 3 1 1 2 4 4 4 5 5 6 7 8 8 9 9 9 9 9 9 10 8 9 8 5 3 4 4 5 6 13 15 15 14 12
6 4 3 7 6 6 6 5 4 3 2 3 4 4 5 6 5 5 6 6 8 7 7 7 8 10 10 9 9 9 9 8 6 4 5 5 6 8 9 15 16 15 15
5 5 4 4 5 6 5 4 3 3 4 4 4 6 6 6 6 5 4 4 6 6 4 5 6 6 7 7 7 7 8 9 4 3 5 3 7 10 13 16 18 18 18
7 7 7 5 4 3 3 4 4 4 3 3 5 7 7 5 3 6 6 5 5 5 4 5 7 6 7 8 8 8 8 7 4 2 3 4 10 14 13 17 21 19 18
6 8 7 7 7 6 4 4 4 3 4 3 5 7 4 3 3 3 5 6 4 5 5 5 6 6 7 8 9 9 8 3 3 2 2 8 11 10 12 10 14 16 16
7 6 8 7 6 5 4 4 3 2 2 1 1 2 2 4 4 3 4 4 3 5 5 5 4 5 5 2 2 5 2 4 3 3 2 9 11 12 12 11 9 12 11
7 2 3 1 4 4 3 3 1 1 0 1 2 2 3 4 4 4 3 3 3 1 0 2 1 1 2 2 1 1 2 2 2 2 4 9 11 14 14 13 13 14 12
2 2 4 3 2 2 1 1 3 2 1 1 3 4 3 3 4 4 3 4 4 3 4 4 2 3 2 1 1 3 3 3 2 3 4 7 10 12 14 15 14 16 14
3 3 3 4 3 3 5 3 3 4 3 4 4 4 4 3 4 3 3 3 3 3 2 3 3 2 3 4 3 3 4 3 5 2 2 9 12 14 14 14 12 13 15
4 5 4 5 2 3 4 4 4 4 4 4 4 3 4 3 3 4 4 4 3 3 3 3 3 3 2 3 2 3 4 4 4 5 4 4 9 14 14 14 12 11 12
2 4 5 3 3 3 5 5 3 4 4 4 4 5 5 5 5 4 3 3 4 4 5 3 2 1 3 3 4 4 2 5 3 7 6 5 6 9 15 16 14 11 7
4 5 4 3 4 3 3 3 4 5 4 3 3 3 5 5 4 4 3 3 4 4 3 3 2 3 3 3 2 4 3 2 7 4 6 6 5 5 8 15 11 7 8
3 5 5 5 3 5 4 4 5 5 3 3 2 2 3 4 4 4 3 4 4 4 4 4 3 3 3 3 4 3 3 3 5 6 8 8 7 7 4 10 4 5 6
3 5 4 3 4 4 4 4 3 3 1 1 2 2 3 2 3 2 2 3 3 4 5 4 4 4 4 4 5 4 4 4 5 5 7 7 6 8 6 5 1 2 6
2 2 3 4 3 3 2 2 2 2 2 2 1 2 3 2 2 1 1 3 3 3 4 6 4 4 2 1 2 2 3 5 5 6 3 4 4 5 4 1 1 2 4
3 2 4 4 4 4 2 2 1 1 1 2 2 2 1 1 2 1 3 3 4 4 5 4 4 3 2 1 1 1 3 4 4 4 4 3 5 4 4 4 5 4 4
3 4 5 5 4 4 3 1 2 1 1 2 1 2 2 4 3 3 4 3 4 3 4 5 5 4 2 2 2 2 1 3 3 3 3 2 5 2 3 4 5 6 6
6 4 5 7 6 4 1 0 1 1 2 2 2 2 4 4 5 5 4 4 3 4 5 6 4 4 3 4 1 3 3 2 2 4 3 4 3 5 3 3 4 4 4
6 5 6 4 5 2 2 1 1 2 2 2 3 5 5 5 5 6 6 6 5 4 5 6 3 3 2 2 2 2 2 1 3 5 4 3 2 3 3 2 2 2 4
3 5 5 5 4 3 3 3 3 5 5 4 4 4 5 4 5 7 7 6 6 7 5 6 3 3 3 3 4 4 4 3 2 3 4 3 3 2 1 1 2 3 4
Wind_Direction
204 179 148 147 132 117 107 96 91 90 92 91 89 88 85 81 74 69 68 69 65 59 53 51 52 55 57 59 57 49 47 44 45 47 48 41 72 108 110 114 107 112 111
131 145 143 149 141 130 118 114 112 109 107 103 99 96 92 91 89 82 71 61 57 56 54 47 41 42 45 51 52 46 38 29 30 30 43 65 134 129 128 114 122 130 124
126 137 137 155 150 140 133 128 119 111 103 95 93 88 78 70 66 61 51 44 42 31 23 25 21 16 17 20 24 21 19 14 11 357 356 239 208 191 179 173 174 156 150
135 140 142 161 158 147 145 140 132 129 117 109 93 79 72 55 44 32 18 8 356 349 348 348 346 338 337 340 342 347 340 339 339 349 345 334 243 217 196 187 192 189 179
140 147 168 164 160 161 162 163 157 157 144 125 73 55 43 31 13 4 348 343 336 332 332 334 332 327 321 323 322 319 313 317 319 350 318 303 266 247 203 196 197 199 193
148 156 179 173 176 171 172 173 183 173 168 103 58 23 3 357 350 342 336 327 323 326 327 327 323 318 312 312 309 311 308 305 304 289 302 304 309 266 202 201 197 203 206
145 163 185 186 185 183 187 191 190 209 224 311 327 343 344 337 333 326 319 317 319 319 321 323 317 308 299 295 296 286 287 294 295 269 280 283 294 292 224 204 202 202 207
153 171 185 190 196 195 198 203 206 233 275 303 328 326 332 323 319 314 313 317 330 326 316 317 311 306 297 287 280 282 287 294 292 245 264 283 289 285 252 222 209 205 203
144 155 194 191 207 217 226 212 219 257 278 310 320 321 331 325 327 331 333 342 344 352 351 348 359 356 351 328 307 299 301 317 313 254 261 274 291 298 269 241 218 207 205
173 182 192 191 212 204 250 256 231 232 267 293 321 329 324 348 30 73 69 57 39 27 43 51 39 21 25 25 30 30 23 27 28 324 289 285 293 307 292 243 226 207 210
190 186 182 189 194 186 201 226 251 285 284 332 343 335 359 334 346 48 76 73 47 65 62 50 34 22 26 35 39 27 15 4 356 307 289 288 298 312 340 304 211 210 219
205 219 191 176 198 179 183 182 197 206 290 317 334 346 334 309 304 350 3 27 100 101 84 52 43 67 62 49 31 42 34 12 1 327 296 301 310 308 304 305 282 238 227
191 196 259 225 181 192 192 149 144 142 246 324 28 32 332 328 333 339 333 331 330 77 9 87 123 149 130 125 69 17 17 8 346 330 315 312 316 310 302 297 275 263 248
118 172 135 137 174 228 121 149 148 143 196 59 27 13 349 319 310 318 322 334 341 350 325 323 298 294 246 202 45 353 345 337 323 320 305 308 323 311 303 300 288 261 263
155 111 115 116 149 149 120 134 102 89 79 75 40 17 4 337 320 320 345 337 330 327 318 303 295 300 315 326 333 345 318 323 320 316 293 316 325 314 305 296 300 282 266
128 101 107 133 156 130 124 102 90 86 79 72 63 50 48 41 19 15 3 359 351 336 314 297 298 296 272 281 255 315 308 300 306 304 297 304 322 320 303 300 297 286 266
140 124 134 120 101 100 98 92 86 89 83 76 69 59 63 56 56 47 29 7 345 340 334 336 317 285 301 300 306 306 309 311 302 310 305 304 314 318 306 287 291 293 299
138 145 150 158 168 126 105 96 79 75 82 104 123 130 101 99 81 51 18 342 327 321 313 308 298 291 278 274 276 284 290 289 297 295 296 303 304 301 296 287 276 305 321
142 146 191 180 167 109 107 117 120 114 122 143 165 122 83 65 48 30 355 328 335 322 311 305 295 263 277 274 264 267 288 298 299 309 295 291 286 276 264 272 274 308 320
129 193 179 166 110 113 125 107 87 121 114 240 214 87 82 68 46 33 338 337 339 333 321 311 263 269 256 265 282 288 289 286 287 294 293 292 283 287 281 226 276 316 323
94 137 143 133 177 167 183 179 227 196 224 248 293 317 39 22 1 341 301 329 333 314 289 295 285 275 276 222 296 280 280 289 288 297 293 309 327 326 282 116 302 344 324
321 189 151 170 207 218 186 203 194 114 310 275 277 288 183 320 320 354 351 318 313 309 319 319 313 314 294 224 265 354 293 313 303 270 315 326 330 333 31 20 22 13 1
302 218 200 195 204 221 208 88 26 28 302 329 322 344 314 329 333 326 302 282 299 307 302 292 287 258 266 273 222 240 270 261 323 319 334 1 339 12 19 8 13 352 354
249 220 198 185 199 220 251 221 100 197 289 264 298 297 308 316 308 300 294 280 283 294 283 274 261 251 220 253 308 230 230 207 226 310 322 321 351 357 9 17 17 0 1
244 218 220 198 248 305 241 220 338 291 255 310 311 302 311 321 313 318 320 304 290 273 269 267 246 242 250 280 234 267 252 269 230 231 278 309 341 19 11 9 27 23 356
225 201 204 217 276 269 304 321 325 301 314 318 326 335 331 315 314 312 303 289 276 274 267 278 236 229 221 239 253 246 234 224 224 203 230 255 277 323 343 9 22 35 16